CAPE
2229 2664 2904 2917 2727 2665 2797 2688 2261 2070 2023 1974 1980 2017 1901 1474 1108 1105 1005 851 876 906 879 1019 1090 1150 1270 1177 1191 1512 1663 1708 1711 1798 1829 1781 1657 1620 1650 1776 1705 1574 1272 1422 1393 1676 1624 1666 1573 1529 1682 1676 1583 1652 1729 1870 1884 1934 1795 1684 1696 1583 1345 1279 1251 1084 910 674 556 600 564 530 653 554 348 241 168 185 150 257 332 304 225 284 259
2310 2694 2742 2665 2548 2562 2634 2537 2221 2052 2048 2035 2015 1983 1804 1448 1224 1139 990 934 893 864 858 873 899 941 1168 1304 1308 1643 1846 1751 1747 1697 1673 1647 1610 1720 1724 1747 1503 1602 1539 1748 1636 1535 1714 1570 1633 1635 1584 1600 1678 1714 1757 1643 1962 1880 1828 1760 1581 1408 1353 1248 1214 1034 794 571 405 252 262 309 312 342 305 257 215 181 242 306 376 288 315 418 422
2455 2653 2611 2572 2649 2612 2507 2366 2045 2012 2044 2075 2074 1873 1592 1282 1260 1169 1049 974 904 821 796 836 967 1108 1296 1366 1451 1838 1806 1758 1869 1878 1763 1707 1772 1907 1974 1752 1720 1381 1439 1781 1724 1679 1683 1624 1343 1757 1585 1692 1691 1816 1880 1850 1862 1825 1666 1619 1522 1302 1138 1169 1060 858 679 544 449 256 151 149 165 200 260 188 176 154 102 153 212 272 252 209 162
2404 2515 2436 2452 2559 2398 2326 2148 2041 1993 2012 2023 1862 1635 1453 1361 1280 1132 1022 979 912 952 1041 1085 1141 1258 1378 1473 1766 1858 1786 1804 1891 1881 1796 1747 1703 1920 1945 1745 1427 1507 1585 1462 1509 1645 1572 1589 1664 1803 1657 1670 1773 1832 1797 1775 1769 1820 1734 1716 1426 1075 928 794 551 344 248 332 351 350 375 62 49 70 107 127 138 111 148 157 117 50 52 58 71
2252 2441 2373 2360 2305 2286 2212 2090 2132 2129 2156 1999 1746 1631 1515 1403 1316 1104 954 949 999 1079 1209 1459 1262 1282 1451 1999 2112 1943 1882 1858 1861 1906 1882 1760 1618 1871 1774 1642 1771 2019 1590 1498 1764 1590 1593 1811 1729 1614 1756 1850 1813 1796 1800 1837 1782 1769 1669 1436 1220 1018 801 502 260 217 180 174 183 108 148 110 104 117 54 37 16 32 41 59 49 162 143 164 207
2398 2420 2260 2198 2110 2103 2114 2162 2146 2148 2087 1951 1707 1528 1464 1468 1370 1214 1067 1045 1145 1138 1082 1199 1270 1354 1803 2063 2125 2037 2006 2102 1964 1926 1929 1877 1952 1704 1573 1682 1866 1819 1753 1668 1602 1581 1706 1630 1616 1589 1704 1754 1818 1825 1757 1695 1548 1429 1347 1354 1025 841 999 724 1079 611 123 102 119 11 0 0 7 128 289 243 223 181 169 92 226 353 265 180 215
2255 2164 2142 2108 1953 1957 2072 2193 2144 2126 2091 1871 1656 1474 1461 1415 1342 1296 1166 1088 1146 1048 1089 1150 1349 1570 1630 1921 1881 1938 2048 2087 1959 2034 2063 1983 1940 1783 1660 1677 1717 1588 1589 1591 1431 1549 1486 1820 1497 1442 1649 1660 1593 1696 1619 1494 1261 1098 918 868 780 804 964 1174 1286 1184 258 43 0 0 0 33 270 591 626 378 352 330 290 240 225 269 353 355 362
2086 2044 2016 1976 1942 1991 2156 2220 2156 2128 2022 1788 1538 1446 1464 1386 1292 1127 1080 1061 978 1026 1370 1435 1384 1605 1624 1856 1837 1989 2076 2029 1944 2028 1998 1925 1865 1825 1784 1852 1644 1468 1653 1536 1449 1605 1702 1480 1862 1832 1720 1778 1647 1482 1398 1184 852 618 584 877 804 1082 895 859 1026 1032 980 88 199 391 510 552 592 1000 1139 1074 848 864 1025 973 834 802 434 176 18
1969 1974 1961 1905 1882 2173 2178 2153 2154 2068 1971 1828 1583 1493 1430 1404 1311 1144 1055 931 847 912 1160 1455 1652 1666 1876 1887 2009 2015 2072 2016 1972 1982 1913 1779 1724 1762 1814 1720 1614 1576 1585 1598 1608 1587 1615 1329 1349 1704 1646 1585 1400 1135 958 801 629 823 1031 1021 1007 1239 1254 1740 1619 1320 721 219 385 540 662 833 906 701 790 1075 1048 1069 854 746 734 514 265 117 176
1883 1876 1862 1924 2042 2217 2134 2182 2116 2003 1937 1786 1576 1486 1435 1367 1234 1108 1078 951 836 918 1027 1490 1793 1817 1854 1875 1934 1975 1944 2048 1969 1756 1682 1637 1635 1674 1732 1750 1508 1547 1543 1438 1402 1430 1579 1537 1566 1404 1220 1042 885 756 831 759 705 854 950 1031 983 1034 1356 1018 1135 378 203 433 515 660 877 876 829 854 1050 1059 1172 976 911 749 629 308 168 219 330
1798 1850 1903 1949 1971 2010 2040 2095 2059 1920 1855 1750 1561 1393 1380 1248 1144 1056 937 879 839 945 1055 1240 1605 1870 1874 1862 1938 2011 1955 2061 1921 1776 1770 1678 1717 1772 1854 1817 1740 1717 1764 1788 1662 1607 1581 1269 1081 980 860 825 777 783 792 743 789 835 931 798 944 1448 1093 730 546 429 472 515 568 640 749 789 585 696 959 923 995 788 754 456 258 196 224 226 242
1751 1805 1831 1830 2132 1892 1998 2014 1944 1825 1766 1586 1528 1396 1287 1185 1056 964 894 838 881 996 1104 1172 1662 1856 2012 2012 2056 2080 2090 2014 1930 1832 1777 1696 1574 1531 1584 1563 1535 1596 1576 1686 1447 1188 1144 1087 975 850 781 835 823 837 746 778 863 715 780 944 790 1537 684 545 397 398 396 429 454 464 453 481 514 600 813 827 825 822 508 290 250 263 250 204 150
1668 1739 1780 1843 1759 1921 1947 1946 1885 1754 1601 1480 1260 1282 1227 1080 1007 955 899 1024 1012 987 1054 1278 1774 1998 2039 2019 2162 2103 2067 2003 1878 1793 1751 1506 1330 1433 1504 1498 1486 1439 1414 1458 1193 1095 1113 984 919 873 889 847 867 838 838 828 775 746 716 900 1149 1510 567 400 316 349 377 391 408 422 449 464 504 679 688 774 823 743 475 248 179 279 110 88 404
1667 1686 1659 1582 1682 1962 1870 1799 1790 1692 1473 1335 1216 1214 1133 1031 937 953 935 1104 959 1074 1437 1554 1650 2001 2131 2240 2125 2062 1976 1968 1888 1784 1719 1448 1250 1344 1448 1427 1358 1256 1281 1283 1280 1291 1256 1279 1290 1071 880 948 909 804 805 840 743 763 889 965 1542 1646 525 359 345 336 375 406 412 429 454 501 536 607 533 562 649 688 407 278 192 167 62 153 132
1581 1521 1494 1561 1780 1727 1869 1759 1683 1648 1491 1395 1345 1201 1083 1035 1002 999 1064 846 999 1295 1375 1569 1777 1968 2115 2156 2172 1978 1824 1790 1743 1712 1618 1479 1287 1249 1349 1418 1310 1300 1316 1267 1271 1422 1375 1326 1068 1000 898 866 916 796 818 772 755 858 885 1192 1368 1747 1182 307 308 344 386 410 412 394 412 450 660 597 452 462 469 447 360 379 280 135 84 71 196
1484 1495 1592 1616 1563 1628 1618 1648 1657 1599 1459 1415 1316 1124 1066 1031 996 872 980 1055 1318 1342 1424 1576 1788 1834 2006 2025 1987 1880 1727 1714 1671 1566 1634 1518 1289 1293 1375 1367 1313 1236 1191 1291 1379 1389 1388 1306 1133 951 945 720 858 753 726 726 732 804 1063 1360 1408 1813 1006 300 297 213 196 237 175 254 220 475 720 556 391 414 355 298 326 186 127 96 103 94 182
1465 1518 1502 1451 1500 1416 1367 1482 1561 1528 1482 1387 1244 1172 1084 1074 1019 939 1143 1108 1165 1311 1211 1326 1662 1786 1848 1942 1912 1859 1679 1607 1524 1493 1484 1512 1431 1380 1349 1301 1334 1295 1324 1289 1374 1363 1412 1189 997 897 812 862 753 741 684 727 707 858 1115 1208 1702 1113 449 259 11 0 13 143 123 55 114 204 316 395 255 247 269 133 72 145 208 251 124 130 207
1385 1356 1347 1396 1351 1247 1312 1352 1369 1267 1226 1320 1269 1164 1106 1031 1197 1272 1362 1251 1327 1232 1390 1611 1675 1706 1669 1680 1676 1676 1607 1624 1562 1520 1494 1427 1390 1364 1354 1260 1275 1269 1296 1435 1331 1234 1260 1116 879 896 895 780 723 683 654 701 544 870 1013 1328 1042 649 355 265 109 54 126 246 47 166 188 539 501 259 176 148 76 219 132 83 187 268 278 306 313
1245 1276 1287 1263 1217 1276 1259 1266 1174 1155 1148 1100 1083 1105 1114 1106 1368 1381 1291 1370 1367 1362 1656 1696 1637 1619 1643 1695 1696 1673 1712 1666 1608 1551 1456 1397 1396 1301 1286 1206 1217 1254 1298 1236 1242 1450 1208 1080 985 871 928 786 778 519 699 595 833 941 1021 1341 1145 789 508 264 333 193 179 1 0 7 222 586 558 253 214 170 367 248 270 311 281 278 242 211 145
1104 1114 1150 1210 1242 1234 1208 1228 1172 1152 1110 1019 1026 1116 1154 1320 1512 1517 1397 1288 1259 1625 1700 1601 1549 1530 1589 1558 1686 1739 1696 1666 1679 1599 1534 1476 1394 1364 1323 1238 1042 1021 1183 1369 1444 1285 1482 1085 1061 968 940 833 712 684 547 778 845 939 1232 1156 686 423 417 458 386 333 193 52 78 93 482 387 287 269 254 165 117 132 135 130 122 129 170 141 84
904 918 1004 1128 1207 1194 1169 1158 1143 1127 1043 1062 1136 1206 1318 1475 1477 1709 1620 1679 1814 1766 1659 1562 1469 1350 1386 1638 1417 1202 1234 1377 1457 1446 1542 1456 1493 1362 1348 1256 1279 1228 1315 1333 1357 1562 1327 1273 1046 1055 916 899 836 682 755 587 762 1106 1428 929 526 422 372 360 309 376 261 217 236 174 318 242 232 188 114 102 142 104 73 62 50 30 110 71 15
971 838 865 1021 1133 1102 1093 1089 1108 1097 1097 1143 1227 1268 1280 1454 1468 1451 1458 1556 1587 1646 1512 1551 1555 1312 1501 1288 1153 1246 966 973 1007 1444 1213 1405 1279 1332 1329 1290 1193 1264 1180 1311 1409 1512 1470 1350 1138 1158 950 918 906 647 206 581 807 1134 1336 585 286 333 312 340 342 221 96 96 234 307 200 138 131 121 134 115 49 116 71 15 17 34 31 27 21
996 906 832 944 913 928 927 993 1050 1047 1122 1172 1227 1316 1473 1357 1343 1389 1434 1718 1714 1697 1569 1564 1295 1398 1386 1312 1406 1072 859 733 788 1234 970 1235 1272 1279 1323 1284 1358 1256 1230 1176 1360 1468 1419 1300 1257 1213 1104 1048 915 342 422 503 514 717 537 532 507 432 424 529 512 338 113 98 34 224 129 166 113 98 96 104 81 49 43 49 21 1 42 24 32
975 832 836 785 624 653 785 740 878 946 1059 1169 1220 1397 1414 1216 1258 1321 1286 1479 1566 1364 1413 1271 1206 1309 1403 1361 1334 1175 962 719 1522 1716 1057 1152 1288 1296 1324 1313 1339 1383 1160 1339 1342 1442 1434 1425 1301 1368 1311 1005 633 310 321 356 410 492 575 585 567 558 538 524 379 265 29 177 28 163 145 106 89 145 92 59 66 52 37 60 39 20 4 3 4
1003 932 916 947 1056 796 829 899 955 1036 1100 1160 1179 1321 1226 1075 1097 1151 1174 1264 1242 1140 1142 1070 1102 1048 1200 1205 1221 1098 1124 1025 777 1148 925 871 1024 1014 1128 1079 1070 1262 1294 930 1122 1261 1406 1145 1200 1190 1120 871 570 326 395 407 402 417 498 524 535 511 474 454 456 440 345 267 130 237 144 90 118 76 83 65 73 75 46 16 8 11 14 11 7
1121 989 957 1148 1287 1172 1064 1099 1056 1115 1155 1167 1180 1366 1074 1040 1016 1044 1041 1012 1019 886 922 910 933 991 1014 1092 1041 921 990 1056 810 933 872 743 798 685 846 747 722 920 1189 790 883 1099 1200 1155 1088 1108 961 888 667 333 343 504 558 568 533 569 648 687 715 626 548 510 452 306 274 256 178 134 97 62 70 116 100 68 24 5 28 22 4 6 8
1215 1104 1081 1290 1390 1368 1240 1212 1156 1132 1154 1143 1132 1117 1055 1111 1098 1092 1054 964 1006 792 720 818 754 1083 1082 961 1009 944 868 964 933 764 890 827 698 558 522 535 519 613 877 834 685 869 988 1054 1011 954 939 837 657 379 633 810 818 768 638 542 622 635 724 753 598 550 455 311 323 254 150 135 125 121 145 64 52 48 33 13 35 29 4 8 10
1191 1169 1202 1349 1439 1427 1335 1322 1198 1143 1140 1134 1017 976 1052 1096 1408 1628 1124 1060 1052 872 717 598 606 834 1093 1210 1049 996 1009 1112 1042 824 855 855 759 591 374 13 0 422 521 779 369 512 893 1023 925 948 951 856 658 780 826 821 800 772 770 712 576 649 607 648 651 603 404 306 221 197 175 222 247 251 81 54 37 39 15 0 4 12 11 10 5
1255 1215 1300 1379 1432 1471 1423 1352 1222 1153 1146 1047 930 1016 1094 1083 1363 1260 1130 1552 1066 1024 858 680 530 687 933 1091 1219 1165 1054 1174 1119 955 766 760 734 680 568 426 1 0 152 459 557 6 359 902 1055 917 1020 910 730 776 729 722 671 602 634 691 556 556 517 539 547 487 366 332 230 184 281 338 530 388 100 73 27 15 8 0 1 30 10 11 7
1395 1336 1411 1375 1418 1509 1478 1394 1270 1168 1048 977 858 1008 1096 1054 1085 1311 1493 1438 1008 941 832 774 679 628 713 709 776 874 1032 1268 1252 1157 868 740 693 643 580 488 478 71 0 0 0 0 38 517 930 1094 1036 1044 929 725 717 689 616 446 486 665 451 460 467 430 391 348 320 294 236 176 346 513 208 174 201 63 30 8 4 0 0 4 13 8 6
1463 1434 1431 1407 1420 1495 1508 1504 1413 1277 1086 1089 896 838 1004 1017 984 1179 1339 1421 1148 1002 963 835 772 788 755 742 775 771 858 1024 1177 1191 1069 919 932 755 617 497 490 473 99 52 0 0 0 276 494 666 839 908 982 914 821 702 634 366 503 504 488 490 465 399 390 380 324 258 249 191 235 195 139 80 338 120 51 20 9 46 20 18 9 3 5
1612 1569 1553 1473 1458 1515 1519 1522 1529 1394 1265 1252 1090 921 930 989 1049 1050 1180 1179 1207 1135 1128 1183 1046 1037 962 898 823 856 796 868 1134 1216 1259 1177 1041 921 789 579 480 280 178 201 43 13 34 198 401 490 531 747 913 932 925 884 702 414 449 494 504 464 429 400 408 392 340 269 236 213 100 49 202 191 77 243 294 54 31 136 27 24 2 3 5
1478 1469 1491 1496 1528 1530 1495 1542 1529 1513 1411 1329 1271 1222 1150 1100 1144 1110 1076 1159 1055 1149 1139 1082 1112 1124 1107 932 785 770 927 974 1027 1159 1218 1100 946 930 931 806 550 526 485 468 374 161 119 226 365 354 399 793 888 888 903 897 817 497 396 406 421 506 473 404 353 342 314 233 238 228 211 23 34 160 217 149 32 281 18 0 41 3 1 5 4
1428 1481 1574 1584 1547 1616 1582 1603 1577 1627 1573 1447 1393 1437 1437 1351 1299 1250 1119 1222 1408 1258 1177 1092 1001 942 874 844 833 836 840 860 1045 1103 1058 1254 1183 1073 1043 997 781 587 570 516 342 438 438 399 278 221 735 885 834 806 829 860 830 689 471 380 414 468 452 417 366 324 219 98 262 274 250 180 1 18 20 33 9 61 220 22 0 0 4 5 7
1445 1502 1532 1557 1578 1644 1719 1860 1779 1676 1542 1491 1400 1277 1243 1206 1251 1243 1121 1088 1184 1242 1298 1280 1127 1016 911 802 652 630 635 709 841 990 1050 1130 1187 1214 1183 1048 944 753 630 572 421 452 428 435 186 106 268 795 910 854 811 796 815 788 692 398 302 355 396 404 390 288 284 241 254 280 271 228 0 0 5 1 48 50 316 4 0 0 1 6 7
1682 1653 1541 1612 1853 1891 1989 2034 1912 1860 1626 1480 1181 1388 1184 1404 1524 1500 1247 1077 1071 1048 1216 1315 1221 1059 899 825 754 814 752 687 758 870 932 1089 1109 1201 1296 1155 936 846 859 725 541 456 454 367 222 107 158 438 803 875 799 767 742 794 774 572 312 346 422 405 328 354 350 312 256 246 249 145 0 0 106 0 0 2 307 7 0 0 0 7 6
1814 1916 1921 1964 2019 2024 2088 1808 1782 1812 1861 1716 1356 1552 1690 1571 1752 1765 1617 1576 1492 1463 1462 1397 1210 1138 1029 801 594 669 751 717 808 889 961 1123 1132 1322 1388 1239 1034 927 881 849 772 675 555 473 180 133 121 291 503 712 762 727 720 718 724 639 321 197 320 284 296 262 282 282 286 291 294 282 211 289 255 0 0 0 103 19 0 0 0 3 2
1864 1988 1929 1986 2014 1868 2037 1991 1785 2049 1754 2011 1517 2018 1947 1659 1575 1412 1545 1534 1519 1310 1289 1323 1225 1066 926 779 668 502 524 642 767 947 1093 1229 1187 1244 1361 1345 1211 1180 1130 952 820 754 716 622 387 163 341 580 524 531 650 697 702 694 674 550 280 38 107 239 360 429 287 278 289 327 374 329 316 314 307 152 0 0 0 16 24 0 2 7 1
1645 1950 1856 1983 1995 1734 2116 1873 2153 2297 2109 2234 1911 1758 1730 1537 1389 1450 1369 1348 1358 1246 1251 1324 1311 1277 1174 995 794 690 607 616 756 838 1050 1182 1186 1138 1204 1243 1180 1256 1320 1182 985 854 796 728 617 567 608 594 603 557 492 524 566 592 644 546 345 162 0 174 316 393 377 217 214 312 388 366 353 337 331 170 0 0 0 0 0 0 0 9 0
1599 1568 1599 1350 1409 1768 1696 1814 1882 2028 2090 2173 1932 1926 1727 1588 1168 1467 1506 1486 1404 1302 1252 1267 1384 1345 1328 1268 1105 1073 992 839 705 656 876 1025 1113 1123 1067 1051 1111 1213 1402 1437 1274 1059 926 871 787 714 679 692 597 504 485 475 422 390 390 409 405 264 174 225 327 307 253 214 193 206 360 412 383 351 325 237 69 0 0 0 0 0 0 1 0
1544 1579 1556 1511 1312 1420 1431 1668 1714 1702 1617 1580 1579 1621 1598 1674 1604 1523 1489 1418 1342 1250 1158 1222 1249 1188 1189 1185 1148 991 881 832 860 903 931 970 1012 1037 1051 1078 1176 1267 1308 1292 1292 1262 1202 994 804 749 705 670 652 562 483 431 418 340 309 301 304 305 146 280 409 307 257 238 220 228 376 428 409 344 340 260 147 15 0 0 0 0 0 0 2
1349 1413 1411 1364 1398 1448 1419 1398 1376 1355 1422 1454 1510 1501 1439 1420 1585 1481 1532 1461 1413 1208 1171 1076 973 922 949 1025 936 852 804 739 860 964 1046 1133 1227 1224 1201 1166 1244 1266 1237 1248 1273 1306 1298 1145 923 778 698 733 703 658 608 419 354 277 254 193 220 160 283 194 412 476 397 295 366 424 422 438 402 351 320 303 211 51 0 0 0 0 0 0 0
1359 1379 1381 1426 1427 1466 1429 1279 1176 1170 1164 1228 1229 1389 1342 1360 1494 1553 1708 1722 1751 1665 1419 1219 1130 1092 1043 923 875 886 921 895 958 1014 1121 1307 1408 1428 1395 1370 1384 1391 1325 1245 1245 1247 1234 1221 1123 926 734 544 651 697 665 514 421 333 247 156 89 134 57 164 135 339 489 402 333 448 409 410 397 357 330 351 257 92 0 0 0 0 0 0 0
1497 1399 1356 1490 1540 1506 1353 1258 1152 1068 1106 1235 1298 1310 1326 1440 1632 1454 1626 1742 1853 1810 1504 1419 1277 1152 1022 976 1077 1113 1108 1062 1114 1131 1154 1132 1088 1256 1368 1427 1478 1442 1326 1291 1231 1159 1088 1009 878 808 549 673 617 696 598 556 575 466 365 239 208 138 110 3 177 191 330 508 266 283 354 404 392 361 336 332 270 144 74 6 0 0 0 0 0
1453 1433 1482 1492 1516 1448 1206 1170 1099 1081 1074 1074 1160 1207 1287 1326 1441 1514 1499 1484 1589 1479 1613 1573 1514 1478 1385 1327 1180 1080 1021 1022 941 922 958 945 875 886 901 944 926 870 934 935 928 936 866 832 810 717 643 536 395 496 542 560 485 519 507 344 207 136 5 126 141 171 236 359 346 324 385 531 498 383 343 295 238 170 113 0 0 52 0 0 0
1480 1438 1268 1367 1361 1325 1205 1159 1125 1106 998 992 1047 1156 1227 1263 1321 1297 1237 1161 1141 1090 1010 1118 1009 1251 1220 1146 1098 1138 1127 968 995 914 972 966 846 922 875 724 698 710 807 824 671 514 410 544 740 833 793 713 336 326 403 412 395 394 443 379 346 151 92 106 144 170 150 192 221 300 386 524 546 409 359 308 232 188 139 87 25 134 3 0 0
1412 1389 1377 1355 1234 1097 979 998 1004 937 830 871 924 1032 1124 1207 1198 1156 1044 1034 1006 928 819 844 960 880 817 912 898 811 1005 1010 844 632 545 555 594 670 722 715 682 590 564 530 387 539 614 558 499 473 481 392 438 397 163 272 272 279 374 413 347 368 186 74 149 197 145 248 302 354 398 425 497 384 330 282 228 230 200 116 139 133 70 0 0
1305 1207 1089 1084 1020 928 933 924 856 688 715 710 835 862 999 1140 1159 1106 1005 992 947 936 858 865 786 786 802 798 766 725 671 737 740 695 591 603 579 551 542 536 516 488 509 462 449 533 546 487 474 465 478 451 344 311 254 298 242 282 203 336 371 191 167 120 84 104 75 151 300 385 480 513 370 242 244 268 239 231 222 140 100 130 104 76 11
977 965 895 879 870 938 992 934 757 641 564 607 597 662 758 836 879 956 998 879 747 791 772 697 723 691 706 731 732 750 764 702 671 616 550 551 600 379 64 372 345 429 462 454 511 538 489 447 486 403 324 115 368 387 429 333 242 342 174 240 390 342 255 158 100 62 79 116 181 241 265 314 327 342 321 223 238 227 211 162 114 111 140 140 90
874 885 821 824 872 892 870 815 780 680 632 572 534 509 460 512 748 740 751 674 594 571 587 659 624 600 591 644 643 679 648 648 646 599 519 455 540 532 450 361 348 0 223 449 476 496 524 504 466 586 588 357 230 126 51 194 229 218 176 238 433 205 170 107 77 53 65 86 134 186 270 268 240 326 384 278 257 245 221 177 123 137 157 138 108
591 558 754 861 876 882 822 754 739 677 592 521 451 392 398 378 375 367 346 302 327 310 495 504 479 451 424 501 552 540 482 472 550 593 525 398 366 407 379 415 355 270 123 52 424 469 536 502 641 648 592 487 419 374 344 286 192 166 194 232 312 109 115 78 76 100 99 118 120 113 124 215 253 227 216 329 334 335 260 223 292 233 181 146 160
Wind_Speed
28 29 24 28 30 31 29 26 25 24 23 24 25 27 26 25 25 26 27 27 28 27 27 27 27 27 26 26 25 25 26 27 26 25 25 26 27 25 23 21 20 19 16 14 16 16 16 16 15 14 13 12 12 12 11 11 11 11 11 12 13 13 13 14 14 14 13 12 11 10 10 11 12 13 14 14 13 12 10 9 7 2 1 8 13
30 26 23 25 31 31 30 27 26 24 23 24 26 27 26 26 26 26 27 27 27 28 28 27 28 28 27 25 24 24 26 26 26 27 26 27 26 24 22 21 20 19 19 16 15 15 15 15 14 14 13 13 12 11 9 9 10 11 12 12 13 13 14 14 13 13 12 12 12 11 11 11 12 12 13 14 14 13 12 11 10 2 3 11 12
30 27 23 26 32 32 29 28 26 24 23 25 26 26 27 25 26 26 27 27 27 28 28 28 28 28 26 25 24 24 25 26 28 26 26 26 25 24 22 20 19 20 19 17 15 14 14 14 13 13 13 12 12 11 10 10 10 10 10 11 12 13 14 14 13 12 11 11 11 11 12 12 11 13 14 14 14 12 11 10 10 8 6 12 11
31 26 24 28 32 31 29 28 26 25 24 25 26 26 26 25 25 26 27 26 28 29 29 29 29 27 26 26 26 26 26 28 28 27 26 26 24 22 21 19 19 19 18 16 15 13 13 12 12 12 12 11 11 10 10 11 11 10 9 9 11 12 14 14 14 12 11 11 10 7 2 nan nan nan 13 13 14 14 13 12 11 nan nan nan nan
30 27 25 26 25 28 28 28 26 26 25 25 25 26 26 25 25 26 27 27 28 28 28 29 30 28 27 28 27 27 27 28 28 28 27 26 24 22 21 19 18 18 18 17 16 15 13 12 11 11 11 10 9 9 10 11 11 10 9 9 11 9 11 15 16 13 11 10 7 4 2 2 5 13 nan nan nan nan nan nan nan 14 14 14 15
28 27 26 26 23 24 28 27 27 27 26 25 26 25 24 25 26 27 28 29 29 29 30 31 30 28 29 29 28 28 28 27 27 27 26 25 22 22 20 19 18 18 17 16 15 16 14 12 11 10 9 10 9 9 10 11 11 10 9 8 9 7 7 10 10 11 10 9 5 nan nan nan nan 7 15 15 16 16 15 nan 14 15 13 14 14
29 26 26 24 21 22 27 27 28 27 26 26 25 24 24 25 26 27 29 30 30 30 30 31 31 29 30 30 30 30 29 28 27 26 26 26 22 21 21 19 18 17 17 16 13 13 12 12 12 11 9 9 9 8 9 10 10 9 8 6 5 4 3 2 2 4 8 nan nan nan nan nan 1 3 13 15 16 16 16 14 13 14 14 14 14
25 24 24 23 20 23 27 27 27 26 26 25 24 24 25 26 26 27 29 30 30 30 29 30 30 29 30 31 31 31 30 29 27 26 26 27 25 22 21 20 18 17 16 17 15 14 12 12 11 11 9 8 7 7 8 9 9 8 6 4 3 2 3 4 6 4 4 nan 1 2 2 2 2 5 13 13 14 16 16 16 15 16 15 15 nan
25 24 22 21 20 26 26 26 25 26 26 24 24 25 25 26 27 28 29 31 31 31 31 31 30 31 31 31 32 32 31 31 30 29 27 27 26 23 21 20 18 17 16 15 14 14 12 12 11 9 8 8 8 7 7 7 7 5 4 4 2 3 4 7 8 7 4 2 3 2 2 4 4 3 11 14 15 17 17 14 14 16 15 14 13
25 22 21 19 20 25 25 25 24 25 24 24 24 25 26 27 28 29 31 32 33 32 31 32 32 32 31 31 32 31 31 31 30 30 28 27 27 25 22 20 19 18 17 16 16 14 13 12 10 8 7 5 6 6 6 6 5 4 3 5 6 7 7 8 13 7 1 2 4 3 4 6 3 5 11 14 15 17 17 17 13 13 12 14 15
24 22 20 20 21 25 25 24 24 24 24 24 24 25 26 27 29 30 32 34 36 35 33 33 33 33 31 32 31 31 31 30 30 30 28 27 24 22 22 21 19 17 16 15 15 14 13 11 10 7 5 4 4 5 5 5 4 4 4 4 5 7 7 13 11 4 1 3 4 4 7 9 4 5 13 15 16 16 17 18 16 15 16 15 13
24 21 20 19 23 24 24 24 24 24 24 24 24 25 26 27 29 31 33 35 37 37 35 33 33 33 32 32 32 31 30 30 29 29 29 25 23 22 22 22 20 19 18 17 16 15 14 12 11 8 4 4 3 4 4 4 3 3 1 4 8 6 13 12 7 4 2 3 4 4 4 4 4 9 15 15 15 16 18 17 16 16 16 15 15
23 21 20 19 18 22 23 24 24 24 24 24 24 25 26 28 29 31 32 33 36 37 36 34 33 30 30 31 32 30 30 29 28 28 28 25 22 21 21 21 20 20 19 18 17 16 15 13 11 8 5 3 3 3 4 3 2 2 3 4 6 6 12 12 6 3 1 3 3 4 5 4 5 13 14 15 15 15 16 16 17 17 16 nan 15
24 21 19 18 16 22 22 22 22 23 23 23 24 24 26 28 29 30 31 32 36 35 33 33 33 31 29 29 30 29 29 28 28 28 25 23 21 21 20 20 20 20 20 19 18 17 16 14 13 9 5 2 2 3 3 3 3 2 2 3 3 4 12 9 8 4 3 3 3 4 5 4 6 12 14 14 14 15 16 15 15 16 nan 16 15
24 21 19 17 16 17 22 21 22 22 21 21 22 24 26 27 28 28 28 33 33 32 31 31 31 30 30 30 28 28 28 29 28 27 24 21 20 20 19 19 19 19 20 20 19 18 17 15 13 11 7 4 2 2 2 2 2 2 2 2 3 2 7 7 7 6 5 5 4 6 4 4 10 12 14 14 13 14 16 16 16 16 nan nan 17
24 21 19 17 16 16 17 21 22 22 21 22 22 24 25 26 27 27 27 29 29 29 30 30 30 31 29 29 29 28 28 28 27 26 23 20 20 19 19 18 19 19 19 20 20 19 17 15 14 11 9 5 3 2 1 1 2 2 1 0 2 2 13 8 7 6 6 6 5 6 5 5 10 13 14 14 15 14 15 16 15 nan 17 nan 16
23 21 19 18 17 17 17 17 18 23 21 21 22 23 24 26 27 27 27 29 30 30 30 29 29 29 29 29 27 26 27 27 26 26 23 20 19 19 19 18 19 19 19 20 20 19 17 14 13 12 8 5 4 3 1 1 2 2 2 2 2 17 17 12 nan nan nan 7 7 nan 6 6 11 12 14 14 14 13 nan 16 16 16 15 15 16
23 20 19 18 18 18 18 17 17 16 15 18 21 23 25 26 26 27 28 29 30 31 30 28 28 28 30 30 29 27 26 25 25 25 23 21 20 20 19 20 20 19 19 20 20 19 17 15 13 11 9 5 4 4 3 1 1 3 3 3 14 20 18 13 8 nan 9 9 nan 8 8 11 13 13 14 14 nan 17 16 nan 16 16 16 16 17
21 19 17 18 19 20 19 18 17 15 15 15 15 19 25 26 26 28 28 29 29 30 30 27 27 27 28 28 27 26 25 24 24 23 23 22 21 20 20 20 20 19 19 19 20 19 16 15 13 11 10 6 4 5 4 2 2 3 4 7 11 17 18 11 9 8 9 nan nan nan 9 10 10 13 14 15 16 16 16 16 16 16 16 17 16
18 16 16 18 19 20 19 18 18 17 16 16 17 18 22 25 25 26 26 28 29 28 26 24 26 27 26 26 25 21 21 19 22 20 22 22 21 18 19 19 19 18 18 19 19 17 16 14 13 12 10 8 6 5 6 4 3 6 9 11 12 15 11 10 10 10 9 nan nan nan 11 13 13 12 13 13 13 15 16 15 15 16 16 15 nan
16 16 17 18 18 19 19 18 17 17 16 16 18 18 19 24 23 25 27 28 27 25 23 22 23 24 23 21 20 17 15 13 12 12 17 14 18 21 18 18 18 18 18 18 18 17 15 13 11 11 10 9 7 6 7 5 5 6 11 13 16 12 13 13 12 11 10 9 8 9 13 13 13 12 11 12 13 13 nan nan nan nan 17 nan nan
16 16 16 17 18 19 18 17 16 15 15 16 15 16 15 18 16 19 21 22 22 21 18 17 20 18 21 19 16 14 12 11 10 12 11 13 15 19 20 19 18 18 18 18 18 15 14 13 10 9 9 9 8 6 4 3 3 6 12 14 13 13 13 14 14 14 nan nan 10 10 13 12 11 11 12 11 nan 16 nan nan nan nan nan nan nan
17 15 15 16 16 16 15 15 14 13 13 12 12 12 13 14 16 18 19 20 17 15 15 17 18 18 16 15 14 14 12 10 10 11 11 14 14 18 20 21 21 21 20 19 17 15 14 12 10 8 7 7 8 6 4 3 2 6 12 13 13 13 14 13 13 14 13 nan nan 13 12 11 12 nan nan 12 nan nan nan nan nan nan nan nan nan
16 15 16 15 16 13 11 10 10 10 10 10 10 11 12 13 15 17 17 16 14 14 16 18 17 16 15 14 15 14 13 10 8 10 15 13 13 18 20 21 22 23 22 19 18 16 14 12 10 7 6 7 8 7 5 3 4 6 13 14 15 13 14 13 13 14 nan 13 nan 16 14 12 nan 12 nan nan nan nan nan nan nan nan nan nan nan
16 16 16 15 14 12 10 8 9 8 8 9 10 10 10 12 14 17 17 16 14 16 18 19 18 17 16 16 15 14 14 14 13 12 14 13 13 14 16 18 18 18 19 18 16 15 15 13 12 9 7 7 6 5 5 4 4 4 13 12 17 15 13 13 13 13 14 13 12 18 16 nan 12 nan nan nan nan nan nan nan nan nan nan nan nan
16 16 16 15 14 12 10 9 10 9 9 9 9 9 10 11 14 17 18 17 17 18 18 18 18 17 17 17 16 17 18 18 17 13 12 13 13 13 14 17 18 18 17 17 16 15 16 15 14 11 8 8 6 5 5 6 4 3 10 13 16 17 16 15 13 13 14 14 14 20 16 14 nan nan nan 14 14 nan nan nan nan nan nan nan nan
17 17 16 15 14 13 11 11 11 11 11 10 9 9 10 12 15 17 20 18 17 17 17 17 17 18 18 18 19 18 18 19 17 13 11 11 12 11 10 12 15 16 16 17 15 14 15 16 15 13 11 9 6 5 4 5 6 5 6 14 15 17 17 17 15 13 14 14 14 20 16 16 15 14 14 nan nan nan nan nan nan nan nan nan nan
17 17 15 14 14 14 12 13 12 12 10 9 9 9 11 15 17 19 20 20 18 16 16 17 16 16 17 18 18 18 16 15 15 12 11 11 10 10 10 nan nan 13 14 16 15 14 14 15 15 13 11 11 9 7 5 4 6 6 4 11 15 17 18 18 17 15 14 14 13 18 18 16 15 15 nan nan nan nan nan nan nan nan nan nan nan
18 17 15 14 13 13 14 14 14 13 10 9 9 10 13 16 17 19 20 19 16 15 15 14 14 13 12 13 15 15 13 14 14 12 13 14 12 10 10 11 nan nan 13 13 14 nan 12 14 14 13 11 12 12 10 8 6 6 7 6 10 13 17 18 19 18 18 15 14 13 15 19 17 14 12 nan nan nan nan nan nan nan nan nan nan nan
21 20 18 15 13 15 15 16 14 12 10 9 9 12 15 17 19 20 19 16 15 14 13 13 13 13 11 10 13 13 13 15 15 12 13 14 12 10 9 10 10 nan nan nan nan nan nan 12 12 12 12 12 13 13 12 9 7 7 7 11 11 15 17 19 20 20 18 15 12 11 17 15 15 12 13 nan nan nan nan nan nan nan nan nan nan
20 18 16 15 15 17 16 16 14 12 10 9 10 12 14 17 18 18 17 16 15 15 15 14 13 11 10 9 11 12 14 16 15 12 13 13 11 11 12 11 7 10 nan nan nan nan nan 10 10 10 10 12 12 15 15 12 13 13 10 11 13 13 15 16 18 20 20 17 13 11 13 17 14 nan 12 15 nan nan nan nan nan nan nan nan nan
20 19 16 16 17 18 17 15 13 11 10 10 10 11 12 15 17 17 17 18 18 16 15 13 12 11 12 10 11 11 14 15 10 7 11 14 12 13 15 13 9 8 11 13 nan nan nan 10 8 8 9 10 13 16 15 14 16 16 12 15 13 15 14 14 17 20 20 19 15 12 nan nan 14 13 nan 11 11 nan nan 16 nan nan nan nan nan
20 22 21 20 19 18 16 13 12 11 10 11 12 11 11 12 14 16 18 18 17 17 17 14 12 10 11 12 11 13 14 14 9 6 10 14 14 14 14 11 10 9 9 12 13 14 14 11 8 8 9 11 12 15 16 17 18 16 16 16 18 14 13 14 16 18 19 19 17 14 12 nan nan 12 12 11 nan 13 nan nan nan nan nan nan nan
18 18 21 22 20 17 15 12 11 11 11 12 13 13 12 12 12 14 16 16 16 16 17 15 14 13 12 11 11 12 13 9 8 8 10 13 13 12 10 9 10 11 10 10 12 15 15 14 10 10 8 11 10 11 16 16 16 17 16 15 20 14 11 12 14 16 18 nan 18 16 13 12 nan nan nan nan nan nan 7 nan nan nan nan nan nan
19 17 17 17 19 20 20 16 12 11 12 13 14 14 14 12 11 12 16 16 17 17 17 17 16 13 12 10 9 10 12 14 13 13 12 11 12 10 9 9 11 12 13 11 12 14 16 16 14 11 10 9 9 11 14 16 17 17 15 15 18 17 10 11 16 17 16 16 18 17 14 12 nan nan nan nan nan nan 10 nan nan nan nan nan nan
19 17 16 16 17 18 20 17 13 12 13 14 14 15 15 12 11 13 14 16 16 17 18 18 18 16 13 10 8 7 11 16 17 17 14 11 10 10 9 10 10 12 12 14 14 12 14 16 16 16 12 9 12 13 14 17 17 16 13 13 16 17 15 13 15 16 14 15 16 17 15 13 nan nan 12 nan nan nan 12 nan nan nan nan nan nan
20 19 17 16 16 15 16 16 15 14 13 15 15 15 15 12 11 13 14 15 16 16 16 17 17 18 16 12 9 7 8 12 15 16 16 13 11 10 10 9 10 12 12 14 15 15 15 16 16 17 17 13 13 14 14 14 15 16 13 13 15 20 21 17 17 15 15 14 15 15 15 13 13 12 13 nan nan nan 11 nan nan nan nan nan nan
22 22 19 15 12 10 9 12 17 15 13 15 16 16 18 15 12 12 14 15 16 16 16 16 17 17 16 14 10 8 7 9 11 13 13 12 12 12 10 9 11 13 14 15 15 17 18 20 17 17 17 17 16 16 15 14 14 14 14 15 16 nan 22 21 17 18 18 15 16 15 13 13 14 14 13 11 nan nan nan nan nan nan nan nan nan
22 22 19 16 12 8 5 7 16 15 13 15 15 17 22 18 13 13 14 15 15 15 16 16 16 15 14 11 9 8 7 8 11 13 13 13 12 12 11 11 12 15 17 17 17 18 19 21 21 18 18 18 19 18 17 16 13 12 13 18 14 19 nan 22 20 19 19 16 16 15 14 13 14 15 13 11 nan nan nan nan nan nan nan nan nan
20 20 20 18 15 12 7 8 16 17 16 16 17 18 21 23 19 16 16 16 15 15 14 15 15 16 14 10 9 8 8 9 11 13 13 13 13 13 13 13 13 15 15 16 16 17 17 19 20 20 19 17 20 22 20 19 16 13 13 16 15 19 17 22 21 19 18 16 15 16 14 13 14 15 14 12 nan nan nan nan nan nan nan nan nan
23 23 22 19 17 13 10 15 19 20 19 19 17 17 16 19 22 21 20 20 18 16 15 14 14 15 14 11 9 9 10 11 13 14 14 13 13 16 16 16 16 17 17 17 18 18 17 19 20 22 21 18 18 22 21 21 19 15 15 13 15 17 15 21 20 19 16 14 14 14 13 14 14 14 13 13 13 nan nan nan nan nan nan nan nan
24 25 24 21 18 17 19 21 23 22 21 19 17 16 16 17 19 19 21 22 21 20 17 15 14 13 13 12 12 13 13 14 16 16 16 17 15 15 16 17 19 20 19 19 20 20 19 20 22 21 23 20 18 23 21 24 18 17 16 16 17 18 17 18 20 19 16 15 16 16 14 13 15 15 15 14 13 nan nan nan nan nan nan nan nan
26 26 24 25 24 23 24 25 24 23 22 20 18 15 15 16 19 18 22 21 20 19 21 19 18 15 12 11 12 13 14 14 15 15 16 17 18 18 19 19 18 19 19 19 19 19 20 20 23 21 23 21 18 21 22 23 19 22 21 21 nan 18 nan 18 19 19 18 18 17 16 15 14 15 16 15 14 14 nan nan nan nan nan nan nan nan
27 27 27 27 26 26 27 28 26 25 23 22 19 17 14 16 18 19 21 23 21 21 21 20 20 18 14 13 14 15 16 17 16 13 15 15 16 15 14 16 18 17 16 17 19 18 18 19 22 24 23 19 20 19 22 21 23 28 20 21 23 23 16 nan 18 21 20 18 18 15 16 14 14 17 18 15 13 13 nan nan nan nan nan nan nan
29 28 27 27 26 28 27 27 26 25 23 22 21 18 19 20 20 21 23 23 24 21 20 19 19 20 18 17 15 15 19 18 16 13 14 14 15 15 13 13 15 15 16 16 17 16 14 16 19 23 24 23 19 19 21 22 21 24 26 28 26 23 nan 21 26 23 22 19 16 16 16 16 15 16 17 15 15 14 13 nan nan nan nan nan nan
30 28 28 28 28 27 27 26 26 25 23 22 21 20 23 23 23 23 22 23 24 22 21 19 17 18 18 19 21 21 24 19 18 18 18 16 17 16 15 13 13 13 15 17 17 13 13 16 19 23 21 24 25 21 20 24 23 23 25 26 30 26 nan 22 27 22 24 19 20 18 17 18 16 17 18 17 15 15 14 nan nan 11 nan nan nan
30 29 30 30 29 28 27 26 26 25 23 23 23 22 25 25 25 25 24 24 23 22 21 22 22 21 21 20 19 21 27 22 19 20 21 20 18 19 20 19 17 16 16 19 25 21 17 17 19 24 24 24 25 22 21 21 24 23 25 28 28 28 26 nan 22 28 25 23 21 21 19 19 22 20 18 16 15 15 15 14 12 12 nan nan nan
31 31 31 30 31 27 27 27 26 25 23 23 25 24 26 25 26 26 25 25 24 22 22 23 24 24 24 24 24 24 24 26 22 17 19 22 22 20 20 19 18 17 17 17 18 21 20 19 20 22 24 25 25 24 22 24 25 24 27 28 29 24 24 24 nan 27 nan 25 22 23 22 21 19 16 16 16 15 16 16 15 14 13 13 nan nan
32 32 31 30 28 27 27 27 26 25 24 24 25 25 26 26 27 26 25 24 24 23 23 24 25 24 25 24 25 25 25 24 24 23 19 18 19 21 nan 22 21 19 19 17 18 19 19 19 19 23 26 24 24 24 24 25 25 23 27 28 29 24 20 22 26 nan nan 26 23 22 22 24 21 19 18 18 17 17 17 15 14 13 14 13 nan
31 31 32 31 29 28 27 27 26 24 22 24 24 26 26 26 27 26 27 25 25 25 25 26 25 25 25 25 24 26 25 24 23 21 20 20 20 20 20 20 19 nan 21 21 20 20 20 20 20 21 23 23 26 25 nan 23 23 23 25 30 32 27 20 19 nan nan nan nan 23 24 23 22 21 19 20 18 18 18 17 17 15 14 14 14 14
33 33 32 31 30 29 27 27 25 24 24 24 24 25 25 27 27 27 28 28 26 26 26 26 25 25 26 26 26 25 24 24 23 20 19 19 19 20 20 20 20 19 20 nan 21 22 22 21 22 24 24 23 23 24 25 24 24 24 24 29 33 28 22 nan nan 27 nan 26 24 24 25 22 20 21 19 17 19 18 17 17 16 15 15 14 15
Wind_Direction
313 307 300 299 295 294 293 293 296 299 300 300 299 298 298 301 304 305 306 306 307 306 306 305 306 307 310 310 309 312 314 314 316 319 322 327 328 325 322 319 316 311 300 309 311 312 310 311 309 306 301 298 296 292 290 290 287 288 289 289 290 290 287 283 278 276 271 267 266 269 276 282 282 285 286 283 278 274 271 266 258 259 308 282 276
311 303 298 297 296 294 293 293 296 297 298 298 298 297 298 302 305 305 306 306 306 305 305 305 306 307 308 311 314 315 314 315 319 323 327 331 330 327 324 322 317 314 318 321 314 313 313 312 311 306 301 297 290 287 285 280 273 278 284 286 290 289 286 282 277 275 277 277 276 272 273 280 283 284 283 283 282 279 278 274 264 273 307 275 272
296 296 295 296 296 294 292 292 294 295 296 297 296 297 299 304 306 306 306 307 306 305 305 306 307 310 314 316 317 316 317 320 322 324 327 330 330 328 325 323 321 318 316 313 314 313 314 313 308 304 301 293 287 285 281 273 270 270 277 287 290 290 286 281 276 272 271 275 277 275 274 279 284 289 291 288 282 278 278 278 272 274 287 274 275
290 288 289 293 293 291 290 291 292 293 295 295 295 297 300 305 307 307 307 308 307 306 308 311 314 317 321 322 318 319 321 322 323 324 327 330 329 327 326 326 321 313 313 313 311 311 311 309 306 303 299 292 288 283 282 271 264 262 265 275 277 278 286 279 278 275 272 273 275 274 312 nan nan nan 284 282 281 283 284 282 280 nan nan nan nan
284 283 283 283 285 287 287 288 290 293 294 294 296 298 303 307 308 308 308 309 309 310 313 315 318 321 323 318 317 318 321 323 325 324 327 329 329 328 327 321 318 317 316 317 318 316 314 309 305 302 296 292 288 284 277 270 266 259 257 254 266 280 285 288 282 279 278 276 273 286 340 344 319 293 nan nan nan nan nan nan nan 293 287 283 279
282 278 277 279 279 281 285 286 291 294 295 295 298 302 307 310 309 308 310 311 313 314 315 316 319 322 319 318 318 321 322 322 325 325 327 328 329 327 326 320 318 317 315 315 317 316 316 314 310 304 298 296 291 282 274 271 267 263 257 247 251 261 271 306 290 252 288 285 275 nan nan nan nan 311 301 302 299 294 289 nan 277 275 279 279 278
279 274 275 275 272 278 284 288 293 294 294 297 301 306 310 312 310 310 313 315 317 318 318 319 323 324 320 319 321 323 323 323 324 324 325 326 325 325 323 320 317 311 308 303 302 307 310 313 315 314 309 304 297 285 274 273 272 267 256 243 239 240 288 2 77 274 282 nan nan nan nan nan 58 283 291 298 297 291 288 291 285 282 278 278 275
270 269 271 270 268 279 285 288 292 294 297 300 305 309 311 312 312 314 316 317 319 319 319 321 323 322 321 321 322 324 324 322 323 322 321 321 320 321 323 321 317 313 310 311 311 305 307 314 314 314 317 310 295 280 272 270 272 274 271 261 255 234 142 69 53 38 314 nan 292 236 206 212 270 307 289 289 294 296 288 281 277 272 269 269 nan
270 268 266 265 269 283 284 286 291 295 300 305 308 309 311 313 314 316 317 318 320 319 319 321 322 322 321 322 324 325 325 324 324 323 323 322 319 317 320 320 318 314 313 313 309 310 314 310 308 309 317 314 295 282 268 267 270 276 266 255 220 189 147 117 16 350 325 348 285 255 258 254 262 297 282 279 279 280 280 270 265 270 272 278 277
269 260 260 261 268 280 282 286 292 299 304 306 307 309 312 315 317 318 319 321 322 322 324 321 324 325 324 325 326 327 326 324 323 323 324 323 321 320 321 323 322 320 317 313 309 307 302 297 301 307 310 302 292 278 274 273 265 261 245 220 192 174 154 256 286 289 340 0 312 307 292 282 277 280 280 278 277 273 275 281 284 281 285 279 277
266 260 258 262 271 279 282 289 296 302 304 304 306 310 314 317 320 322 323 324 325 325 325 324 325 326 326 327 326 327 326 323 321 320 320 319 314 310 310 313 317 316 311 308 307 304 299 298 296 299 309 306 297 278 269 264 269 256 229 198 178 175 267 270 266 260 303 336 318 310 289 274 275 278 284 282 277 278 278 277 277 280 280 280 276
267 260 260 263 280 283 289 294 299 302 303 304 307 312 316 319 322 326 326 328 328 327 327 325 326 326 328 328 327 326 324 322 320 320 321 320 315 313 314 316 319 319 318 315 312 311 307 304 301 301 323 324 305 266 252 252 264 282 244 200 185 214 289 280 271 269 345 319 291 289 275 275 279 287 284 284 284 281 279 277 282 281 279 280 278
268 265 265 269 276 290 295 300 303 304 304 305 311 315 318 322 325 327 328 330 331 329 327 325 324 326 328 327 326 326 325 323 321 320 322 321 317 316 317 317 319 321 323 321 319 319 316 310 306 310 330 340 299 258 234 231 251 251 217 192 183 251 296 292 279 272 295 279 270 271 274 272 284 287 288 290 290 285 282 283 285 283 281 nan 281
270 269 270 275 278 298 300 300 299 298 302 307 313 316 320 324 326 327 330 333 332 328 325 322 321 321 323 326 325 325 324 323 320 320 323 322 320 319 319 318 320 322 325 326 323 320 320 319 315 317 333 329 282 248 214 212 217 221 216 174 189 218 301 298 294 289 278 266 261 260 256 268 282 289 289 290 291 289 286 287 285 286 nan 284 279
271 273 276 277 281 284 298 293 292 297 301 306 311 316 321 322 323 326 329 331 327 323 321 318 317 318 319 320 321 322 321 322 320 320 320 322 321 320 320 320 319 320 324 326 324 322 323 323 324 325 328 334 308 271 223 201 206 212 200 199 170 200 304 314 300 291 279 276 266 260 257 276 293 292 290 287 287 287 290 288 288 288 nan nan 280
275 277 274 271 274 279 281 294 294 296 300 305 310 316 318 318 320 324 324 321 317 318 318 317 315 316 316 317 319 320 320 319 318 317 318 320 320 319 319 319 318 320 322 325 324 322 323 326 327 328 327 330 332 313 291 190 218 213 217 131 151 267 311 306 297 280 274 272 270 270 278 278 280 280 284 284 284 286 288 293 295 nan 288 nan 283
273 273 275 279 280 277 280 282 287 297 298 302 307 313 314 313 316 318 315 312 312 314 317 316 314 314 314 312 312 314 317 318 317 316 315 317 317 316 317 318 319 318 319 321 323 323 322 324 329 327 325 337 353 352 10 258 249 241 226 158 233 295 296 298 nan nan nan 276 274 nan 265 273 287 280 281 284 288 292 nan 284 284 285 285 287 286
260 265 271 275 276 274 272 272 278 278 281 294 305 311 311 312 313 313 311 309 310 313 313 313 312 311 310 310 310 310 312 313 314 314 312 313 314 314 315 317 317 318 319 321 324 325 323 322 326 328 327 343 359 17 4 268 263 256 239 218 295 298 302 299 299 nan 288 281 nan 274 270 273 276 281 280 284 nan 287 285 nan 286 285 288 287 286
261 268 277 281 278 275 274 273 272 269 270 274 282 302 309 311 309 311 311 307 306 310 310 310 311 310 309 308 309 308 308 311 314 315 313 311 312 314 317 318 316 317 319 322 326 328 327 323 322 326 332 339 6 20 11 19 313 311 287 266 282 300 301 298 301 298 291 nan nan nan 274 277 277 281 278 284 286 289 290 291 292 292 291 288 286
267 271 273 272 274 276 274 269 269 269 270 273 279 284 304 309 311 313 312 311 309 308 308 309 312 312 311 310 309 308 307 310 315 318 315 314 314 318 318 319 317 317 322 326 326 329 329 326 322 325 331 342 6 24 24 38 359 351 308 288 292 296 301 301 300 294 292 nan nan nan 284 289 291 293 293 293 291 288 287 288 295 296 293 293 nan
273 272 267 270 271 271 267 266 270 275 279 281 281 286 302 311 315 315 316 313 308 306 306 307 309 312 308 300 291 294 299 302 306 315 316 313 321 322 322 321 319 317 322 328 331 329 330 328 324 323 329 345 2 27 34 31 22 348 301 298 305 308 310 306 304 302 299 297 291 292 301 299 292 292 291 293 291 292 nan nan nan nan 297 nan nan
267 269 269 272 278 276 272 271 272 277 281 283 288 292 298 304 303 312 313 311 307 304 302 299 300 301 300 290 291 296 298 302 311 319 312 316 323 328 327 325 325 323 325 329 331 331 329 329 324 322 329 342 1 355 16 55 30 321 292 296 313 314 312 313 312 310 nan nan 302 303 302 302 301 297 294 287 nan 291 nan nan nan nan nan nan nan
264 273 281 282 280 282 282 280 280 282 287 289 292 295 291 297 304 309 313 308 301 291 292 294 293 297 294 292 293 295 299 309 323 332 324 323 327 332 329 330 328 327 327 328 328 331 329 329 326 324 327 336 328 335 358 8 308 279 289 301 313 313 314 316 312 309 311 nan nan 309 312 308 299 nan nan 299 nan nan nan nan nan nan nan nan nan
272 276 283 278 279 286 287 280 283 287 288 286 282 284 289 299 306 308 307 300 286 282 287 291 291 290 288 288 294 301 302 311 315 346 335 320 327 332 331 329 330 329 329 326 326 330 330 327 325 324 310 301 312 332 347 340 300 293 296 305 308 312 312 313 311 311 nan 313 nan 316 308 309 nan 299 nan nan nan nan nan nan nan nan nan nan nan
262 260 266 270 272 281 280 275 271 273 271 273 283 285 289 301 310 308 307 299 284 277 285 291 289 286 286 292 302 306 308 309 313 309 311 316 320 323 325 321 321 324 326 322 320 322 318 314 312 304 299 301 301 320 321 321 316 299 292 304 307 310 309 307 311 310 312 311 309 312 308 nan 307 nan nan nan nan nan nan nan nan nan nan nan nan
259 262 261 262 262 271 271 264 262 258 258 259 273 283 284 303 312 315 310 303 291 284 289 292 290 292 297 303 308 312 308 304 300 304 306 310 321 330 330 326 323 327 324 326 323 322 317 316 316 315 311 302 308 318 324 327 343 335 298 304 306 312 312 311 311 307 309 308 309 315 314 313 nan nan nan 307 306 nan nan nan nan nan nan nan nan
260 258 256 259 256 257 258 258 257 257 253 256 256 265 287 304 312 318 316 309 299 294 296 300 303 306 309 316 322 317 307 300 301 303 309 309 322 327 332 326 326 325 323 325 327 322 319 320 320 318 314 312 314 313 329 327 317 332 321 304 309 310 308 308 307 305 307 309 312 319 314 312 317 314 312 nan nan nan nan nan nan nan nan nan nan
265 263 261 261 261 261 261 259 260 256 255 258 263 277 297 309 320 324 319 316 308 305 310 313 315 317 321 330 322 309 303 303 304 312 317 307 315 320 327 nan nan 320 319 326 327 324 323 320 315 311 312 321 327 322 319 322 307 322 355 304 306 305 305 305 305 303 306 308 307 318 320 322 319 316 nan nan nan nan nan nan nan nan nan nan nan
291 290 288 281 275 271 267 264 262 261 265 274 283 295 305 313 318 324 324 319 315 315 311 309 311 319 328 328 301 298 302 306 308 319 319 323 322 319 316 322 nan nan 313 323 321 nan 321 317 314 312 305 313 324 324 317 306 305 322 349 301 301 304 303 303 303 302 301 306 305 315 326 326 327 315 nan nan nan nan nan nan nan nan nan nan nan
314 311 307 300 283 272 267 262 261 264 268 270 286 298 308 318 327 328 328 318 313 304 298 302 311 320 330 309 289 303 318 318 318 323 329 332 323 319 320 317 311 nan nan nan nan nan nan 311 313 312 305 305 311 313 309 312 304 306 324 302 301 306 306 305 303 301 300 302 306 307 324 313 309 306 318 nan nan nan nan nan nan nan nan nan nan
296 297 297 287 273 265 257 254 253 257 258 272 285 297 312 323 330 332 321 309 304 306 312 311 309 324 338 325 306 325 333 330 328 324 328 333 327 327 333 324 317 309 nan nan nan nan nan 317 314 321 317 311 310 301 301 305 291 282 284 295 301 292 297 296 296 296 298 301 302 299 302 310 303 nan 304 308 nan nan nan nan nan nan nan nan nan
277 284 286 282 277 270 263 255 253 254 259 268 276 297 318 328 331 327 317 313 314 317 313 304 310 332 351 356 319 326 340 340 333 311 327 335 333 333 331 323 326 315 306 303 nan nan nan 302 309 319 320 316 309 295 291 287 290 293 286 280 285 289 291 296 293 295 296 297 300 296 nan nan 303 302 nan 315 307 nan nan 332 nan nan nan nan nan
287 293 296 290 286 282 279 276 270 264 269 274 286 305 323 330 330 325 319 315 317 314 311 311 313 328 356 7 341 340 353 354 348 320 322 323 319 323 326 322 318 312 302 298 296 295 292 288 290 294 308 310 306 296 287 283 282 283 282 278 278 281 289 292 287 289 295 296 297 295 290 nan nan 298 299 306 nan 320 nan nan nan nan nan nan nan
286 283 285 281 279 275 274 279 279 277 281 285 298 316 331 336 328 321 310 305 298 302 309 318 324 333 351 8 360 352 1 350 333 324 306 299 298 304 313 313 311 305 301 296 293 290 291 284 281 269 286 307 317 313 294 286 278 275 270 266 266 267 281 280 273 279 288 nan 291 289 290 290 nan nan nan nan nan nan 315 nan nan nan nan nan nan
279 282 290 291 286 280 272 270 276 284 288 296 308 320 330 337 321 301 301 303 308 310 318 324 331 342 348 3 10 3 346 335 342 345 331 309 295 291 297 305 298 298 302 296 292 287 288 288 281 277 269 278 289 293 296 292 287 273 262 260 265 271 266 280 262 260 275 282 284 285 287 287 nan nan nan nan nan nan 305 nan nan nan nan nan nan
279 289 293 291 289 286 276 268 277 292 294 301 309 318 331 329 299 306 309 307 314 315 319 327 330 337 346 0 9 9 341 338 338 338 343 333 308 290 284 281 285 290 294 291 288 288 285 285 284 286 282 278 281 291 292 298 297 293 277 264 266 262 265 271 271 266 268 274 279 282 286 286 nan nan 276 nan nan nan 307 nan nan nan nan nan nan
275 273 276 283 289 289 278 266 271 285 290 295 307 310 317 299 296 312 316 311 312 317 322 325 328 333 339 349 356 353 340 331 328 328 335 333 311 288 279 284 286 293 294 290 290 288 287 287 287 288 290 289 289 293 294 299 306 306 294 273 266 263 254 254 271 270 261 266 276 279 280 286 280 280 270 nan nan nan 303 nan nan nan nan nan nan
269 272 272 275 276 273 269 270 273 279 282 292 303 309 298 296 297 310 316 315 314 320 325 325 329 331 331 340 347 353 340 331 317 311 314 314 308 302 294 290 293 302 311 312 313 303 298 296 296 294 294 291 292 295 300 304 309 313 306 274 244 nan 262 259 252 256 257 266 271 277 282 282 279 273 267 265 nan nan nan nan nan nan nan nan nan
270 273 269 262 257 259 268 263 273 280 278 285 296 301 298 303 301 308 311 310 311 320 322 324 327 324 326 338 332 338 329 321 313 306 305 300 299 301 300 298 302 314 320 325 324 317 306 300 300 296 292 294 292 291 297 301 309 311 308 279 265 261 nan 258 253 251 252 254 262 272 265 271 273 270 266 262 nan nan nan nan nan nan nan nan nan
270 272 264 256 260 269 268 267 281 286 278 274 284 292 306 309 311 308 309 308 312 311 311 319 319 323 327 331 320 310 308 305 301 295 293 291 292 298 306 310 311 313 319 319 320 318 315 306 302 298 297 290 286 287 287 292 296 299 303 296 289 267 273 264 260 259 254 243 248 262 269 268 269 267 267 262 nan nan nan nan nan nan nan nan nan
268 268 268 270 274 279 277 272 274 275 269 269 273 283 291 296 305 316 314 314 310 306 307 313 317 318 317 320 320 318 311 304 302 298 297 303 311 313 315 318 321 324 323 324 318 314 310 306 301 301 302 299 292 290 290 290 293 286 286 294 283 280 273 267 262 260 259 246 244 256 262 266 268 267 266 262 262 nan nan nan nan nan nan nan nan
253 257 256 256 258 254 249 251 256 255 255 262 273 281 291 296 300 306 304 303 305 304 306 306 313 312 314 319 319 316 312 309 303 301 308 316 321 323 326 331 331 330 324 315 309 308 308 308 305 303 300 303 298 292 289 284 287 297 290 282 268 258 257 257 258 258 256 247 241 247 255 261 269 267 261 261 261 nan nan nan nan nan nan nan nan
249 246 245 246 246 248 248 250 251 252 253 254 259 273 285 291 296 300 300 299 296 300 303 306 310 315 313 312 308 304 303 302 301 305 313 318 320 329 337 331 321 309 303 303 304 306 309 312 310 308 294 292 296 292 296 298 295 283 280 280 nan 267 nan 261 249 250 252 247 239 241 247 250 261 264 265 262 262 nan nan nan nan nan nan nan nan
242 238 240 245 247 247 249 250 251 252 252 251 257 264 276 285 292 300 300 294 297 296 296 297 304 305 312 310 307 304 306 298 290 306 306 306 309 318 321 315 304 299 307 312 312 314 313 313 309 305 300 297 299 303 304 303 295 287 282 295 280 275 261 nan 256 243 251 250 250 243 245 247 249 254 256 260 261 260 nan nan nan nan nan nan nan
243 243 246 251 253 248 250 253 254 254 256 254 257 264 269 272 277 282 289 289 283 287 292 296 303 308 308 306 309 306 291 288 302 302 302 307 309 310 310 309 308 313 316 311 303 303 310 318 319 312 307 302 300 298 299 304 301 295 293 282 276 268 nan 256 250 236 249 247 252 252 247 247 247 249 253 251 252 256 258 nan nan nan nan nan nan
248 250 255 256 255 253 249 251 255 255 254 254 257 263 269 271 273 276 277 280 282 285 282 289 290 294 301 302 300 302 297 307 311 311 305 305 305 307 310 311 312 312 316 312 305 314 324 312 307 300 306 314 311 304 303 303 306 304 296 300 290 278 nan 261 254 237 236 242 250 254 247 244 241 241 247 250 253 253 253 nan nan 255 nan nan nan
255 257 257 256 253 253 253 252 254 254 253 254 256 262 267 271 274 278 279 278 280 279 282 284 283 283 286 283 285 292 304 311 312 313 313 319 320 320 323 329 331 328 324 320 317 330 328 323 313 305 307 307 306 305 305 306 300 304 301 294 286 273 263 nan 261 242 234 236 243 247 242 241 238 228 229 241 250 251 249 249 254 253 nan nan nan
258 257 257 254 251 251 253 255 256 255 254 257 258 263 269 272 273 274 277 277 276 277 278 280 282 282 280 278 280 279 282 300 310 310 311 315 320 323 325 327 328 329 327 325 323 322 320 319 318 313 306 302 301 302 302 297 302 303 303 299 299 284 264 251 nan 250 nan 237 238 237 235 242 244 243 234 235 243 248 251 247 247 249 246 nan nan
253 253 254 255 255 253 253 256 256 258 259 261 265 267 272 275 276 278 277 279 279 277 279 279 279 280 278 278 280 282 282 282 291 304 312 314 315 319 nan 322 326 329 325 328 330 329 327 324 317 309 310 307 304 307 304 298 297 304 297 300 301 287 262 260 250 nan nan 237 232 245 242 240 239 237 233 230 233 238 246 250 249 253 250 246 nan
248 248 249 251 251 254 254 255 255 257 259 262 266 267 270 274 275 276 277 276 276 276 277 277 278 280 280 279 281 282 282 285 285 286 293 305 315 318 318 322 325 nan 328 332 333 329 325 321 317 312 306 301 296 293 nan 298 294 297 296 293 295 278 262 267 nan nan nan nan 234 240 241 247 247 239 240 236 236 235 241 245 248 250 250 248 249
246 245 247 250 252 252 253 254 254 257 260 261 264 268 270 271 273 272 271 269 269 271 274 275 278 279 279 279 278 279 282 284 284 286 294 297 302 309 314 317 320 324 326 nan 328 328 327 322 313 305 304 306 302 296 292 294 293 292 293 294 298 283 270 nan nan 249 nan 240 236 232 237 239 241 239 241 243 240 238 238 242 246 248 251 248 248